Zurück zum Katalog

STARLINK-11086

AktivKommunikationVLEO
NORAD 60043·PAYLOAD·🇺🇸 United States

Gestartet Jun 8, 2024 von Vandenberg Space Force Base

Loading…

Nächste Überflüge (nächste 24 Stunden)

TLE

AktuellSource: CelesTrak SupGP

Epoche: Sep 15, 2026, 03:22 UTC

1 60043C 24112F   26258.14076389 -.00064231  00000+0 -52900-3 0  2588
2 60043  53.1572  52.3879 0001056  89.7937 349.7154 15.69745579    19

Verfolge STARLINK-11086 in Echtzeit mit AllMySat

Download on the App Store